Wind_Speed
5 4 2 2 1 1 1 2 2 3 3 4 4 4 4 4 4 4 3 3 4 5 5 5 5 5 5 6 6 6 6 7 7 7 8 8 9 9 9 9 9 9 9
4 4 3 2 1 0 0 2 2 3 3 4 4 5 4 4 4 5 5 5 5 5 5 6 5 5 6 6 6 6 7 7 7 7 7 9 9 9 8 9 9 9 9
3 3 3 2 1 1 1 2 2 2 3 4 4 5 5 5 5 6 5 6 6 5 6 7 6 6 6 6 7 7 7 7 8 8 8 8 9 9 10 9 9 10 10
3 3 3 2 1 1 1 2 2 2 3 3 4 4 5 5 6 6 6 7 6 6 7 7 7 6 6 6 7 7 7 7 8 8 9 9 9 10 10 10 10 11 11
4 3 3 2 1 1 1 2 2 3 2 3 4 5 5 5 5 6 6 6 7 7 7 7 7 7 7 7 7 7 8 8 9 10 10 10 10 10 11 11 11 12 12
4 4 3 3 2 1 2 2 2 2 3 4 5 5 5 6 6 6 6 7 7 7 7 6 7 7 8 8 8 8 9 10 10 11 11 11 11 11 11 12 12 12 12
4 4 4 4 3 3 3 2 2 3 4 5 5 6 6 7 8 8 7 7 7 7 7 7 7 8 9 9 10 10 10 11 11 11 11 11 12 11 12 12 13 12 12
5 5 5 5 5 4 3 3 3 4 4 5 5 6 7 8 8 8 8 8 8 9 9 9 9 9 10 10 11 12 11 11 12 12 12 12 12 12 12 13 14 14 13
6 6 5 6 4 4 5 4 4 5 5 5 6 8 8 8 9 9 10 9 10 10 11 10 11 11 11 11 12 12 12 12 12 12 13 13 14 14 13 14 14 14 15
8 7 6 6 6 5 5 5 5 6 6 6 7 8 9 9 9 9 9 10 10 10 10 11 11 12 12 13 13 13 14 13 13 14 14 15 15 15 15 15 15 15 15
8 8 7 7 7 6 6 6 6 6 6 7 8 9 10 10 10 9 9 10 11 11 12 12 12 12 12 12 13 14 14 14 14 14 14 15 15 16 17 16 16 15 16
10 9 8 8 7 7 7 7 8 8 8 9 10 11 11 12 12 11 11 11 12 12 13 13 13 13 12 12 12 13 14 15 15 15 15 15 16 16 17 17 17 16 16
10 10 9 8 7 8 9 9 10 10 11 11 12 12 13 13 13 13 13 13 13 13 13 13 13 13 13 14 13 14 15 15 16 16 17 17 17 18 17 17 18 18 18
11 11 10 9 9 9 10 11 12 12 12 13 13 13 14 14 14 14 15 15 15 15 15 15 15 15 15 15 15 16 16 16 16 17 18 18 18 19 19 19 19 19 19
12 11 11 11 11 11 12 13 13 14 13 14 14 15 15 15 15 16 16 16 16 16 16 16 16 16 16 17 17 17 18 17 18 18 19 19 19 19 19 20 20 21 20
13 13 12 12 12 13 13 14 14 14 15 15 15 16 16 16 17 17 17 17 17 17 17 17 17 17 18 18 18 19 18 19 19 20 20 20 20 20 20 21 21 21 21
15 15 14 14 14 14 15 15 15 15 16 16 16 16 16 17 17 18 18 18 18 18 18 18 18 18 18 19 20 20 20 20 20 21 21 22 22 22 22 22 22 23 23
16 17 17 16 16 16 16 16 17 17 17 17 17 17 17 18 18 18 19 19 19 19 19 19 20 20 19 20 20 20 21 21 22 22 23 23 23 23 24 24 24 24 23
17 17 18 18 18 18 18 18 18 19 19 19 19 19 19 19 19 20 20 20 21 21 22 22 21 22 22 22 21 22 22 23 24 24 24 24 24 24 25 25 26 25 26
19 19 19 19 19 20 20 20 20 20 20 20 20 20 20 20 21 21 21 22 22 23 24 24 24 24 24 24 23 24 25 25 26 26 25 26 25 25 25 26 27 27 27
21 21 21 21 21 21 22 22 22 22 22 22 22 22 22 23 23 23 24 24 25 25 26 26 26 26 26 26 26 26 26 27 27 28 27 27 27 27 28 28 28 28 28
24 24 23 23 23 23 23 24 24 24 24 23 23 24 25 25 25 26 26 27 27 27 28 28 27 28 28 29 29 28 28 28 29 29 29 29 29 28 29 29 29 29 29
26 25 25 25 25 25 25 25 25 26 25 25 25 26 27 27 27 28 28 28 29 29 29 29 29 30 30 30 30 30 30 30 30 31 31 30 30 30 30 30 30 30 30
28 27 27 27 27 27 27 27 28 28 27 26 27 27 28 29 30 30 30 30 30 31 31 31 31 32 32 32 32 32 33 32 32 32 32 31 31 31 31 31 31 32 32
30 29 29 29 29 29 29 29 30 30 30 28 28 29 30 30 31 32 32 32 32 32 33 33 33 33 34 34 34 34 34 34 33 33 33 33 33 33 33 32 32 33 33
31 31 31 31 31 31 31 31 32 32 31 31 31 31 32 33 33 33 33 33 33 33 34 34 35 35 36 36 36 36 36 35 34 34 34 35 34 35 34 33 33 33 33
Wind_Direction
71 67 65 65 101 165 190 181 195 213 214 219 225 232 232 232 239 237 246 258 262 262 271 280 283 281 275 279 279 276 274 275 277 278 277 280 284 287 281 277 282 290 289
64 62 57 51 64 120 214 220 223 225 229 235 237 239 241 244 251 253 255 262 271 275 277 283 283 275 278 278 277 277 278 280 283 283 283 283 286 286 286 281 284 288 286
45 40 30 18 355 262 253 256 239 221 233 242 249 253 252 245 253 254 259 269 276 281 283 283 285 284 281 276 274 279 280 285 284 284 285 287 288 288 288 287 284 283 286
26 19 12 2 341 282 274 295 245 228 242 244 256 264 258 253 257 254 258 267 274 280 284 286 288 285 284 284 278 279 279 285 286 286 287 282 286 286 286 286 286 284 284
23 16 7 359 20 333 280 292 277 235 246 257 264 263 255 256 267 263 271 272 273 274 281 284 281 278 285 284 284 281 282 286 286 286 288 284 285 285 284 285 285 287 284
28 21 13 4 354 332 300 296 281 262 271 267 267 264 261 266 273 277 276 273 276 275 275 283 282 284 290 287 286 285 286 286 286 287 289 286 286 286 286 287 287 287 288
23 19 10 1 348 329 316 307 286 282 276 277 275 268 271 276 278 283 279 276 281 282 283 285 285 284 291 291 287 285 286 286 285 288 289 287 285 286 285 286 286 286 286
18 10 3 350 343 343 336 311 298 303 290 286 287 283 277 276 281 284 279 280 288 286 281 284 286 288 292 292 287 287 286 288 287 287 285 286 285 282 284 284 284 284 285
9 1 356 344 336 334 332 329 319 315 314 306 297 293 292 287 285 287 287 284 288 288 285 284 284 287 290 288 286 286 286 287 289 290 290 288 286 286 284 285 285 286 286
6 357 351 347 339 335 336 331 323 320 311 308 303 301 300 294 293 289 290 287 286 287 285 282 284 286 289 287 284 280 284 287 287 288 289 290 291 288 287 288 289 288 287
4 358 351 347 342 332 327 329 321 318 310 308 304 303 302 300 295 288 287 288 290 291 291 291 292 291 291 291 289 285 283 288 287 287 289 289 291 290 289 289 289 288 288
2 355 345 342 342 336 330 326 319 312 306 303 302 301 300 298 299 296 293 291 291 290 292 294 293 293 295 297 296 291 287 288 287 287 286 288 291 291 291 290 289 288 289
353 349 346 340 336 332 326 320 315 308 304 302 299 298 297 296 297 297 295 290 291 290 288 289 290 289 292 294 292 290 289 288 289 289 288 288 289 290 291 291 289 287 288
344 340 338 335 330 325 321 316 312 308 302 300 299 297 295 294 295 295 294 290 288 287 285 284 285 286 287 286 286 287 287 287 289 291 289 289 290 291 289 288 288 286 285
340 337 332 328 325 321 318 315 314 310 304 301 299 298 296 295 295 294 293 290 289 288 286 283 282 283 284 283 284 287 286 285 289 291 291 291 293 293 292 292 291 287 286
334 333 331 327 324 321 319 317 316 313 309 303 299 299 297 295 295 295 294 293 291 290 289 286 282 281 283 282 282 284 288 288 289 290 291 292 292 292 291 292 293 291 288
329 328 326 323 321 318 317 317 314 312 309 306 302 299 298 296 293 292 292 292 290 288 288 288 286 284 282 283 284 284 286 286 288 288 289 290 291 291 291 290 291 290 288
324 322 321 322 320 317 313 312 312 311 308 305 302 299 295 294 293 291 291 290 289 288 288 289 287 285 283 283 284 284 284 285 286 287 289 289 289 289 289 289 289 288 288
315 317 316 316 317 315 312 310 308 307 306 303 300 298 295 293 292 291 290 289 289 288 287 288 286 284 282 282 282 283 284 284 285 286 288 289 288 288 288 288 288 286 286
312 313 313 311 312 312 311 309 308 305 303 301 299 297 295 292 290 289 288 288 287 287 287 288 287 286 285 284 284 283 283 284 284 285 287 288 286 286 287 288 289 288 287
308 309 309 308 307 308 308 307 305 303 302 301 300 298 296 294 291 288 288 289 287 286 286 286 288 287 285 284 283 283 283 283 283 283 284 285 285 285 286 287 288 287 287
305 304 304 305 306 305 304 303 302 301 300 298 298 297 296 295 292 290 290 289 287 286 286 287 288 287 285 284 283 284 284 283 283 283 282 283 284 285 286 287 288 288 289
301 301 302 303 303 304 304 303 303 303 301 298 296 296 294 293 292 290 290 289 288 287 288 288 287 286 285 286 285 286 286 286 286 285 286 285 284 285 286 286 287 287 288
297 298 298 298 300 302 303 302 302 300 299 297 296 295 294 292 291 290 289 288 288 288 288 288 288 286 285 284 284 285 285 286 287 286 285 285 284 282 282 283 284 285 286
297 296 298 298 299 299 299 299 300 299 299 296 294 295 294 292 290 289 288 287 288 288 287 288 287 286 286 285 284 285 284 285 285 283 283 284 284 284 283 283 283 284 285
296 295 295 296 297 297 297 297 297 297 297 295 295 296 295 292 291 289 288 288 288 287 287 287 287 286 285 284 283 284 284 284 284 283 283 284 284 284 284 283 282 283 284
Height
5883 5883 5883 5883 5883 5883 5883 5884 5884 5884 5885 5886 5886 5887 5888 5888 5888 5888 5888 5888 5888 5887 5887 5887 5886 5886 5885 5885 5885 5885 5885 5884 5884 5883 5883 5883 5882 5882 5881 5881 5880 5880 5879
5883 5883 5883 5883 5883 5884 5883 5883 5884 5884 5884 5885 5885 5886 5886 5887 5887 5887 5887 5887 5887 5886 5886 5886 5885 5884 5884 5884 5884 5883 5883 5883 5882 5882 5881 5881 5880 5880 5879 5879 5878 5878 5877
5884 5884 5883 5883 5883 5883 5883 5883 5883 5883 5884 5884 5884 5885 5885 5886 5886 5886 5886 5886 5886 5885 5885 5884 5884 5883 5883 5882 5882 5882 5881 5881 5880 5880 5879 5878 5878 5878 5877 5877 5876 5876 5875
5884 5884 5883 5883 5883 5883 5883 5883 5883 5883 5883 5883 5884 5884 5884 5884 5884 5884 5884 5884 5884 5884 5883 5883 5882 5881 5881 5881 5880 5880 5879 5879 5878 5878 5877 5877 5876 5876 5875 5874 5874 5873 5872
5884 5883 5883 5882 5882 5882 5882 5882 5882 5882 5882 5883 5883 5883 5883 5883 5883 5883 5883 5883 5882 5882 5881 5881 5880 5880 5879 5879 5879 5878 5878 5877 5876 5876 5875 5874 5874 5873 5873 5872 5871 5870 5870
5884 5884 5883 5882 5882 5882 5882 5882 5882 5881 5882 5881 5881 5881 5881 5881 5882 5881 5881 5881 5881 5880 5879 5879 5878 5878 5878 5877 5876 5876 5875 5875 5874 5874 5873 5872 5871 5871 5870 5870 5869 5868 5867
5884 5884 5883 5882 5882 5881 5881 5881 5880 5880 5880 5880 5880 5880 5880 5880 5880 5879 5879 5879 5878 5878 5877 5877 5877 5876 5876 5875 5874 5874 5873 5872 5872 5871 5870 5869 5869 5868 5867 5867 5866 5865 5864
5884 5884 5883 5882 5881 5881 5880 5880 5879 5879 5879 5878 5878 5877 5878 5878 5877 5877 5877 5877 5876 5876 5875 5875 5874 5874 5873 5872 5871 5871 5870 5869 5868 5868 5867 5867 5866 5865 5864 5863 5863 5862 5861
5884 5883 5882 5881 5880 5880 5880 5879 5878 5878 5877 5877 5876 5876 5876 5876 5875 5875 5874 5874 5874 5873 5872 5872 5871 5870 5870 5869 5869 5868 5867 5866 5865 5865 5864 5863 5862 5862 5861 5860 5859 5858 5857
5884 5883 5882 5881 5880 5879 5879 5878 5877 5876 5876 5875 5875 5874 5874 5873 5873 5873 5872 5871 5870 5870 5869 5869 5868 5867 5867 5866 5865 5864 5864 5863 5862 5862 5861 5860 5859 5858 5857 5856 5855 5855 5854
5884 5883 5881 5880 5879 5879 5878 5877 5876 5875 5875 5874 5873 5873 5872 5871 5870 5870 5869 5869 5868 5867 5866 5865 5864 5864 5863 5862 5862 5861 5860 5859 5859 5858 5857 5856 5855 5854 5853 5852 5851 5851 5850
5884 5882 5880 5879 5878 5877 5876 5876 5875 5874 5873 5872 5871 5870 5869 5869 5867 5867 5866 5866 5865 5864 5863 5862 5861 5860 5860 5859 5858 5857 5857 5856 5855 5854 5853 5852 5851 5850 5849 5848 5847 5846 5845
5883 5881 5879 5878 5877 5875 5874 5874 5873 5872 5871 5869 5868 5867 5866 5865 5864 5863 5863 5862 5862 5861 5860 5859 5857 5857 5856 5855 5854 5853 5853 5852 5851 5850 5849 5848 5847 5846 5844 5843 5843 5842 5841
5882 5880 5878 5876 5875 5874 5872 5871 5870 5869 5867 5866 5865 5864 5863 5862 5861 5860 5859 5858 5858 5857 5856 5855 5853 5852 5852 5851 5850 5849 5848 5847 5846 5845 5844 5843 5842 5840 5839 5838 5838 5837 5836
5881 5878 5876 5875 5873 5871 5870 5869 5867 5865 5864 5863 5862 5861 5860 5858 5857 5856 5855 5854 5853 5852 5851 5850 5849 5848 5847 5846 5845 5844 5843 5842 5841 5840 5839 5838 5836 5835 5834 5833 5832 5831 5830
5879 5877 5875 5873 5871 5869 5867 5866 5864 5862 5861 5859 5858 5857 5856 5854 5853 5852 5851 5849 5848 5847 5846 5845 5844 5843 5842 5841 5840 5840 5838 5837 5836 5835 5833 5832 5831 5830 5829 5828 5826 5825 5824
5878 5875 5873 5870 5868 5866 5864 5863 5861 5859 5857 5856 5854 5853 5851 5850 5849 5847 5846 5845 5843 5842 5841 5840 5838 5837 5837 5836 5835 5834 5833 5832 5831 5829 5828 5827 5825 5824 5823 5822 5821 5820 5818
5875 5873 5870 5868 5865 5863 5861 5859 5857 5855 5853 5852 5850 5848 5847 5846 5844 5843 5841 5840 5838 5837 5836 5835 5833 5832 5831 5830 5829 5828 5827 5826 5825 5823 5822 5821 5819 5818 5817 5816 5815 5814 5812
5872 5870 5867 5865 5862 5860 5857 5855 5853 5851 5849 5847 5846 5844 5842 5841 5839 5837 5836 5834 5833 5831 5830 5829 5827 5826 5825 5824 5823 5822 5821 5819 5818 5817 5816 5814 5813 5811 5810 5809 5808 5807 5806
5869 5866 5864 5861 5858 5856 5854 5851 5849 5847 5845 5843 5841 5839 5837 5836 5834 5832 5830 5829 5827 5826 5824 5823 5821 5819 5818 5817 5816 5815 5814 5813 5812 5810 5809 5807 5806 5804 5803 5802 5801 5800 5798
5864 5862 5859 5857 5854 5851 5849 5847 5844 5842 5840 5838 5836 5834 5832 5830 5828 5826 5825 5823 5821 5819 5818 5816 5814 5813 5811 5810 5809 5807 5807 5805 5804 5803 5801 5800 5799 5797 5796 5795 5793 5792 5790
5859 5857 5854 5852 5849 5847 5844 5841 5839 5836 5834 5832 5830 5828 5826 5824 5822 5820 5818 5816 5814 5812 5811 5809 5807 5806 5804 5802 5801 5799 5798 5797 5796 5795 5793 5792 5790 5789 5788 5786 5785 5783 5782
5853 5851 5849 5846 5843 5841 5838 5836 5833 5830 5828 5826 5824 5821 5819 5817 5815 5813 5810 5808 5806 5804 5803 5802 5800 5798 5796 5794 5793 5791 5789 5788 5787 5786 5784 5783 5782 5781 5779 5777 5776 5775 5774
5847 5845 5843 5840 5837 5835 5832 5829 5826 5823 5821 5819 5817 5814 5812 5809 5807 5805 5803 5801 5798 5796 5795 5793 5792 5790 5788 5786 5784 5783 5781 5779 5778 5777 5775 5774 5773 5771 5770 5769 5767 5766 5764
5841 5838 5836 5833 5830 5828 5825 5822 5819 5816 5813 5811 5809 5806 5804 5801 5799 5796 5794 5792 5790 5788 5786 5784 5782 5780 5778 5776 5774 5773 5772 5770 5769 5767 5765 5764 5763 5761 5760 5759 5758 5756 5755
5833 5831 5828 5826 5823 5820 5817 5814 5811 5808 5806 5803 5801 5798 5795 5792 5790 5787 5785 5783 5781 5779 5776 5774 5772 5770 5768 5766 5764 5763 5761 5760 5759 5757 5756 5754 5753 5751 5750 5750 5748 5747 5745